Location: Kernascl�den
(48.0062°N, 3.3198°W)
Time: 22:16:28
(UTC+00:00)

CZ-2C R/B - Pass Details

Date: 21 January 2021
Orbit: 704 x 908 km, 98.1° (Epoch: 03 March)

Event Time Altitude Azimuth Distance (km) Brightness Sun altitude
Rises 17:43:18 0° 142° (SE) 3,295 6.1 -7.9°
Reaches altitude 10° 17:45:41 10° 136° (SE) 2,400 5.3 -8.3°
Maximum altitude 17:50:40 42° 67° (ENE) 1,189 3.5 -9.1°
Drops below altitude 10° 17:55:56 10° 358° (N) 2,534 5.5 -9.9°
Sets 17:58:29 0° 352° (N) 3,500 6.3 -10.3°
